STARLINK-34029, 63805

Orbit data source: Space-Track

STARLINK-34029, 63805 is a payload satellite owned by SpaceX/Seattle (US) in LEO that was launched on Sun, 04 May 2025 UTC via an FALCON 9 launch vehicle from the Air Force Eastern Test Range (AFETR). Payload-class satellites include a variety of spacecraft equipped with specific instruments for various scientific and technological missions. These include communications satellites like Starlink; space stations such as the ISS; scientific satellites like the Hubble; Earth observation satellites from companies like Planet Labs, Umbra, and HawkEye 360; GPS; miniature CubeSats for education and research; and military/defense satellites.

Loading next visibility...
Identifier
63805, 2025-092B
Orbit
LEO
Country
Flag of USUS
Related business
Manufacturer
SpaceX/Seattle
Mission
Operational Commercial Communications
Bus & Motor
STARLINK V2MO, Unknown motor
Mass
575 kg wet, ~530 kg dry
Launch date (UTC)
2025-05-04 (7 months ago)
Launch vehicle
FALCON 9
Launch site
Air Force Eastern Test Range (AFETR)
Object type
Payload
Rocket body
Debris
Shape & HBR
Box + 2 Pan, 17.7 m
Radar Cross Section
36.964 m², Large (>1 m²)

Expand to show TLE details & history
Last TLE update: 1 day ago

TLE from 1 day ago
0 STARLINK-34029
1 63805U 25092B   25349.23067345  .00017121  00000-0  63019-3 0  9997
2 63805  43.0024 289.8844 0001297 250.4816 109.5896 15.27583806 35691
Epoch: 2025-12-15T05:32Z
TLE epoch observation values (Epoch: 2025-12-15T05:32:10.186Z)
Latitude
0.00002°
Longitude
122.70977°
Altitude
483.112 km
Speed
7.625 km/s
True Right ascension
19h 19m 32s
True Declination
0° 00' 00"
Sunlit
Object was in daylight at epoch
Visualization orbit readout
Latitude
Unknown
Longitude
Unknown
Altitude
Unknown
Speed
Unknown
Apparent Right ascension
Unknown
Apparent Declination
Unknown
Sunlit
N/A
Visualization observer readout
Local Sidereal Time
14:14:27
Azimuth
Unknown
Elevation
Unknown
Doppler factor
Unknown
Orbital elements
Apogee altitude
485.873 km
Perigee altitude
484.092 km
Semi-major axis
6,863.119 km
Eccentricity
0.00013
Inclination
43.0024°
RAAN
289.8844°
Arg. of periapsis
250.4816°
True anomaly
109.6036°
Mean anomaly
109.5896°
Eccentric anomaly
109.5966°
Mean motion
3.81734 °/min
Orbital period
94.31 mins
BSTAR
0.00063019
Loading maneuver chart data...
Computing Atmospheric mass density...
Loading historical data...
Loading historical data...
Loading historical data...
Loading historical data...
Loading historical data...
Loading historical data...
Loading historical data...

Documentation

Showing up to 5 results
|